Temp
16 16 15 16 16 17 17 17 18 17 16 17 17 17 17 17 17 18 19 20 19 19 19 19 19 19 21 21 18 18 18 16 15 16 16 17 17 16 16 16 18 19 19 19 19 19 19 18 18 18 17 17 17 17 16 16 16 16 16 17 17 17 17 17 17 16 15 15 14 14 14 14 14 14 14 14 14 14 14 13 13 13 13 13 13 13
16 15 15 16 17 17 17 17 17 17 16 16 16 17 16 16 17 18 19 19 19 18 19 18 18 19 20 19 16 16 18 16 15 16 16 17 17 17 17 16 17 18 18 18 18 19 18 18 18 17 17 17 17 16 16 16 16 16 16 16 17 17 17 17 16 16 15 15 15 14 14 14 14 13 14 14 13 14 14 14 13 13 13 13 13 13
15 14 15 16 15 15 15 15 16 16 16 16 16 16 16 16 17 18 18 19 19 18 19 18 18 20 19 16 15 15 16 15 15 16 16 17 17 17 17 17 16 17 17 18 18 19 19 18 18 17 17 17 16 16 16 16 16 15 16 16 17 17 17 17 16 16 15 14 14 14 15 14 14 13 13 14 13 13 13 13 13 13 13 13 13 13
14 15 16 14 13 15 15 15 14 15 15 16 16 16 16 16 17 18 18 19 19 18 18 19 19 20 17 15 15 15 14 14 14 15 16 16 16 17 17 16 16 17 17 18 18 19 19 18 18 17 16 16 16 16 15 15 15 15 16 16 17 18 17 16 16 15 14 14 14 14 14 14 14 13 13 13 13 13 13 13 13 13 14 13 13 13
15 15 15 14 14 16 16 15 14 15 15 15 16 16 16 17 17 18 18 19 19 18 18 19 19 18 16 14 15 15 14 14 13 14 14 15 16 17 17 17 17 17 17 18 18 18 18 18 17 16 16 15 15 15 15 15 15 15 16 17 18 18 17 16 16 15 15 14 14 14 13 13 13 14 13 13 14 14 14 14 14 14 14 13 13 13
15 15 15 15 14 15 15 15 15 15 16 16 16 16 17 17 18 18 18 19 19 18 18 18 18 17 15 14 15 14 13 13 13 13 12 12 14 15 16 16 16 16 16 16 16 16 16 16 16 15 15 15 15 15 15 15 15 15 16 17 17 17 17 17 16 15 15 15 14 14 14 14 13 13 13 14 14 14 14 14 14 14 14 14 13 13
15 15 16 16 15 14 15 15 15 15 16 16 17 18 17 17 17 18 19 19 18 17 17 17 17 16 15 15 15 14 13 12 12 12 12 12 12 12 13 14 15 15 15 15 15 15 15 15 15 15 15 15 15 15 15 15 14 14 15 15 16 16 16 16 16 15 15 14 14 14 15 14 14 14 14 14 14 14 14 14 14 14 14 14 13 13
16 16 16 16 15 15 15 15 15 15 15 16 18 19 17 17 18 18 19 18 17 17 17 17 18 17 15 15 14 13 13 12 12 12 12 12 11 11 12 13 14 14 14 15 15 15 15 15 15 15 14 14 14 14 14 14 13 13 14 14 14 14 14 15 15 15 14 14 14 14 14 14 14 14 15 15 14 14 14 14 14 14 14 13 13 13
16 16 16 16 15 15 15 16 15 15 16 18 19 18 17 18 18 18 19 18 16 17 17 17 17 16 15 14 13 13 12 12 12 12 12 11 11 11 11 12 13 13 13 14 14 15 15 14 14 14 14 14 13 13 13 14 14 14 14 14 14 13 14 14 14 14 14 14 14 14 14 14 14 14 15 15 14 14 14 14 14 14 14 13 13 13
16 17 17 16 16 16 17 17 16 16 17 18 18 17 17 18 17 18 18 18 16 16 17 17 17 16 14 13 12 13 13 12 12 12 11 11 11 11 11 11 12 12 12 12 12 13 13 13 13 14 14 13 13 14 14 15 15 15 15 15 15 14 14 14 13 13 13 14 14 14 14 14 14 14 14 15 14 14 14 14 14 14 13 13 13 13
16 17 17 17 17 17 18 16 15 17 18 18 18 18 18 18 17 17 16 17 17 16 17 17 16 16 15 13 12 12 13 12 12 11 11 10 10 11 10 10 11 11 11 12 12 12 12 13 13 13 13 13 14 15 16 16 16 16 16 16 16 16 15 15 14 13 13 13 13 14 14 15 14 14 14 14 14 14 14 14 14 13 13 13 13 13
16 17 17 18 18 17 18 16 15 16 17 17 18 18 18 17 17 16 15 16 16 16 16 15 14 16 15 13 12 12 12 11 11 11 11 11 10 10 10 10 10 10 10 11 11 11 12 12 12 12 12 12 14 15 15 16 16 16 15 15 16 16 15 15 14 13 13 13 13 14 14 15 14 14 15 14 14 14 14 14 13 13 13 14 14 13
16 17 16 18 19 18 18 17 16 16 16 17 18 17 17 16 15 16 15 15 16 16 15 13 14 15 13 12 12 11 11 11 11 11 11 10 10 10 10 9 9 9 10 10 10 11 11 11 11 11 12 13 14 15 14 14 14 14 14 14 14 14 14 14 13 13 13 12 12 13 14 14 14 14 14 14 14 14 13 13 13 13 13 14 14 14
16 16 16 17 19 18 18 17 17 16 17 18 18 17 16 15 15 15 14 14 15 16 14 13 14 14 12 11 11 11 11 11 11 11 11 10 10 10 9 9 9 8 9 9 10 10 10 11 11 11 11 12 14 14 13 13 13 13 13 13 13 13 13 13 13 14 14 13 12 13 13 14 14 14 15 15 14 14 13 13 13 13 13 13 14 14
15 15 17 18 18 18 18 18 18 18 17 17 17 17 17 16 15 15 14 15 15 15 15 14 14 12 11 11 11 11 11 11 11 11 10 10 9 9 9 8 8 8 8 8 9 10 10 10 11 11 11 11 12 13 12 12 12 13 13 13 13 13 13 13 14 14 15 15 14 13 13 13 14 14 15 15 14 14 13 13 13 13 14 14 14 14
15 15 18 18 17 18 19 18 18 19 17 15 15 17 17 17 17 15 14 14 15 15 14 13 12 11 11 11 10 11 11 11 11 10 10 10 9 9 8 8 8 7 7 7 8 9 9 10 10 11 11 11 11 12 12 11 11 12 12 12 12 13 13 13 14 14 15 15 15 14 13 13 13 14 14 14 14 14 13 13 13 13 13 14 14 14
15 16 17 18 18 18 18 18 18 19 18 16 16 17 16 16 17 16 13 13 14 15 13 11 11 10 10 11 10 11 11 11 10 10 10 9 9 8 8 7 8 8 7 7 8 8 9 9 10 10 10 10 10 11 11 11 11 11 11 11 12 12 13 14 14 13 14 14 14 14 13 13 13 13 14 14 14 14 13 13 13 13 13 13 13 13
15 16 17 17 19 18 17 18 18 18 18 17 17 17 16 15 16 16 15 14 14 15 12 10 11 11 10 11 11 11 11 10 10 10 9 9 8 8 7 7 7 7 8 8 8 8 8 9 9 10 10 10 10 10 11 11 11 11 11 11 11 12 12 13 14 13 13 13 13 13 13 13 12 13 13 14 14 14 14 13 12 12 12 13 13 13
15 16 17 17 18 18 17 18 18 17 17 18 17 17 16 16 16 15 15 15 15 14 12 11 11 10 10 11 10 11 11 10 10 9 8 8 7 7 6 6 6 6 7 7 7 8 8 8 9 9 10 10 10 10 10 10 10 10 10 11 11 11 11 12 12 12 12 12 12 13 13 13 13 13 13 13 13 13 14 13 13 12 12 13 13 13
15 15 16 16 16 17 17 16 17 17 17 18 17 16 16 16 16 16 15 15 15 14 11 11 11 10 10 10 11 11 11 10 9 8 8 7 6 6 5 5 5 5 5 5 6 6 7 8 8 8 9 9 10 10 10 10 10 10 10 10 11 11 11 11 11 11 12 12 12 13 13 13 13 13 12 12 12 13 13 13 13 13 13 13 13 13
15 15 16 16 15 16 16 15 15 16 17 17 17 16 16 16 15 16 15 14 15 15 12 11 11 10 10 11 10 10 9 9 9 8 7 6 6 5 5 4 4 4 4 4 5 6 6 7 7 8 8 9 9 9 10 10 10 10 10 10 11 11 11 11 11 11 12 12 13 12 12 13 13 12 12 12 12 13 14 13 13 13 13 14 13 13
15 15 15 15 14 14 14 13 13 14 15 16 16 15 15 15 15 16 15 13 13 14 13 12 11 10 10 10 8 8 7 7 7 7 6 6 5 4 4 4 4 4 4 4 4 5 5 6 7 7 8 8 9 9 9 10 10 10 11 11 11 11 11 11 11 11 12 12 13 13 12 12 12 12 12 12 12 13 13 13 13 13 13 13 13 13
14 15 14 13 13 12 13 13 13 13 13 14 13 12 12 14 15 17 16 14 13 12 11 12 11 10 8 8 7 6 6 6 6 6 6 5 4 4 4 4 4 4 4 3 4 4 5 5 6 7 7 7 8 8 9 9 9 10 11 11 11 11 11 11 12 12 12 13 13 13 13 13 13 12 12 12 12 13 13 13 13 13 13 13 13 13
14 14 13 12 13 13 14 14 13 13 13 13 12 10 11 12 14 15 15 14 13 12 12 13 11 9 8 7 7 6 6 6 5 5 5 5 4 4 3 3 3 3 3 3 3 4 4 5 6 6 7 7 7 7 8 8 9 10 10 11 11 12 12 12 12 12 12 12 12 12 12 13 13 13 12 12 12 12 12 13 13 13 13 13 13 13
14 13 12 13 13 13 14 14 14 14 12 12 10 9 10 11 12 13 13 13 14 11 11 13 11 8 7 7 6 6 6 5 5 5 4 4 4 3 3 3 3 2 2 3 3 3 4 4 5 6 6 6 7 7 7 7 8 9 10 11 11 12 12 12 12 12 12 12 12 12 12 12 12 12 12 12 13 12 12 13 13 13 13 13 13 13
13 10 11 13 13 12 13 13 13 12 11 10 9 8 9 10 12 13 14 15 15 10 9 12 10 7 7 6 6 5 5 5 5 4 4 3 3 3 3 2 2 2 2 2 2 3 3 4 5 5 6 6 6 7 6 6 7 8 9 10 11 11 12 12 12 12 11 11 12 12 12 12 11 11 11 12 13 13 13 13 13 13 13 13 13 13
11 9 9 11 12 13 12 11 10 10 10 10 9 8 8 8 9 13 15 15 13 10 8 10 9 7 7 6 5 5 4 4 4 4 3 3 3 2 2 2 2 2 2 2 2 2 3 4 5 5 5 6 6 6 6 6 6 8 9 9 10 11 11 12 12 11 11 11 11 12 12 11 11 11 11 11 12 12 12 13 12 12 13 13 13 13
11 9 9 9 9 10 9 8 8 9 8 8 7 7 7 7 9 12 13 11 11 11 11 9 8 7 6 5 5 4 4 4 3 3 3 3 3 2 2 2 2 2 2 2 2 2 3 4 4 5 5 5 6 6 6 6 6 7 8 9 10 10 11 11 11 11 11 11 11 11 11 11 11 11 11 11 11 12 12 12 12 12 13 13 13 13
11 10 9 8 8 7 7 7 8 8 7 7 7 7 7 7 8 9 8 7 8 11 11 8 7 6 5 4 4 4 4 3 3 3 3 3 2 2 2 2 2 2 2 2 2 3 3 4 4 4 5 5 6 6 6 6 6 7 8 9 9 10 10 11 11 11 11 12 12 12 12 11 10 10 11 11 11 12 12 12 12 12 12 13 13 13
10 9 8 8 7 7 7 7 7 7 7 7 7 7 7 7 7 7 7 6 7 8 8 6 5 5 4 4 3 3 3 3 3 3 2 2 2 2 1 1 1 1 1 1 2 2 3 4 4 5 5 6 6 6 6 6 7 7 8 8 9 9 10 10 11 11 11 11 11 12 12 11 10 10 10 11 11 12 12 12 12 12 12 12 12 12
10 9 9 8 7 7 6 7 7 7 6 6 6 6 6 6 6 6 6 6 6 5 5 5 4 4 3 3 3 3 3 3 3 2 2 1 1 1 1 1 1 1 1 1 1 1 2 3 4 5 5 6 6 6 6 6 7 7 8 8 8 9 9 9 10 10 10 10 10 11 12 11 10 10 10 10 11 11 11 12 12 12 12 12 12 12
10 9 8 8 8 7 7 6 7 7 7 6 5 5 5 5 5 5 5 6 6 6 5 5 5 4 3 3 3 3 3 2 2 2 1 1 1 1 1 1 1 0 0 0 1 1 2 3 4 4 5 5 5 6 6 6 7 7 7 8 8 8 8 9 9 9 9 9 9 9 10 10 10 10 10 10 10 10 11 11 11 12 11 11 11 12
10 9 8 8 8 7 7 7 7 8 9 8 6 5 5 5 5 5 5 4 5 5 6 6 5 3 3 3 3 2 2 2 1 1 1 1 1 1 1 1 1 1 0 1 1 2 2 2 3 3 4 4 5 5 6 6 6 6 7 7 7 7 8 8 8 8 8 8 9 9 9 9 9 9 10 10 10 10 11 11 11 11 11 11 11 11
9 9 9 9 8 7 7 7 8 9 9 7 5 5 5 5 5 5 4 4 4 4 5 4 3 3 3 3 2 1 1 1 0 0 0 0 0 0 1 1 1 1 1 1 1 1 2 2 2 3 3 3 4 4 5 5 6 6 6 6 6 7 7 7 8 8 8 8 8 8 8 8 8 9 9 10 10 10 10 11 11 11 11 11 11 11
9 10 9 8 7 7 6 7 8 9 7 5 4 5 5 5 4 4 4 4 4 3 3 3 3 2 2 2 1 1 0 0 0 0 0 -0 0 0 0 1 1 1 1 1 1 1 1 2 2 2 3 3 3 4 4 5 5 5 5 6 6 6 7 7 7 8 7 8 8 8 8 8 8 8 9 9 10 10 10 11 11 10 10 11 11 12
10 10 8 7 7 7 7 7 8 7 5 4 4 4 5 5 5 5 4 3 3 4 3 3 2 2 1 1 1 1 0 0 0 0 0 0 0 0 0 1 1 1 1 1 1 1 1 1 2 2 2 3 3 3 4 4 4 5 5 5 6 6 6 6 7 7 7 7 7 7 7 7 8 8 9 9 9 9 10 10 10 10 10 10 11 11
10 10 8 7 7 7 6 6 6 5 5 5 5 5 5 5 5 5 5 3 3 3 3 3 2 2 1 1 1 1 1 1 0 0 0 0 0 0 1 1 1 1 1 1 1 1 1 1 1 2 2 2 3 3 3 3 4 4 5 5 5 5 6 6 6 6 6 6 6 7 7 7 7 7 8 8 8 8 8 9 10 10 10 10 10 10
10 10 9 8 7 6 6 5 5 6 6 5 5 5 5 5 5 5 5 4 3 3 3 3 2 2 1 1 1 1 1 2 1 -0 0 0 0 0 0 0 1 1 1 1 1 1 1 1 1 1 1 2 2 2 2 3 3 4 4 4 4 5 5 5 5 5 5 5 6 6 6 7 6 6 6 7 8 7 6 7 9 9 9 9 9 10
8 8 9 8 7 6 7 6 6 6 6 5 5 4 4 5 5 5 6 5 3 2 3 3 2 2 1 1 1 1 2 2 1 -0 0 0 0 0 0 0 0 1 1 1 1 1 1 1 1 1 1 2 2 2 2 2 3 3 3 3 3 4 4 4 3 4 4 4 5 5 6 6 6 6 5 5 6 5 4 5 7 8 9 9 9 9
8 7 7 7 6 6 6 6 5 5 5 4 4 4 4 5 5 6 7 5 2 2 3 3 2 2 2 1 1 1 2 2 0 -0 -0 -0 0 0 0 0 1 1 1 1 1 1 1 1 1 1 1 1 1 1 1 2 2 2 2 2 2 2 3 2 2 3 3 3 4 4 5 6 6 6 5 4 4 4 4 4 6 7 8 8 8 9
7 6 6 6 6 5 5 4 4 4 4 4 4 4 4 5 6 6 6 4 1 1 2 2 2 2 2 2 1 1 1 1 0 -0 -0 0 0 0 0 0 0 0 1 1 1 1 1 1 1 1 1 1 1 1 1 1 1 1 1 2 2 2 2 2 2 2 2 3 3 4 4 5 5 5 5 5 4 4 3 3 4 6 7 7 8 8
6 6 6 6 5 4 4 4 4 4 4 4 4 4 5 6 6 5 3 2 1 1 1 1 1 1 1 1 1 0 0 0 0 -0 0 0 0 0 0 0 0 0 0 0 0 1 1 1 1 1 1 1 1 1 1 1 1 1 1 1 1 1 1 2 2 2 2 2 3 3 3 4 4 5 5 5 5 4 3 3 4 5 5 6 6 7
5 5 5 4 4 4 4 4 5 5 4 3 4 4 4 4 4 2 1 1 1 1 0 0 0 0 1 1 0 -0 -0 -0 0 0 0 0 0 0 0 0 0 0 0 0 0 0 0 1 1 1 1 1 1 1 1 1 1 1 1 1 1 1 1 1 1 2 2 2 2 2 3 3 3 4 4 5 5 5 4 3 4 4 5 5 5 5
3 4 4 3 3 4 4 4 5 4 3 2 3 3 3 2 2 1 1 1 1 0 0 0 0 0 1 0 0 0 0 0 0 1 1 1 1 0 0 0 0 0 0 0 0 1 1 1 1 1 1 1 1 1 1 1 1 1 1 1 1 1 1 1 1 1 1 2 2 2 2 2 3 3 3 4 4 4 4 3 3 4 4 4 4 5
3 3 4 3 2 3 3 3 2 2 2 2 3 2 1 1 2 1 1 1 0 0 1 0 0 0 1 1 1 1 1 1 1 1 1 1 1 1 1 1 1 0 1 1 1 1 1 1 1 1 1 1 1 1 1 1 1 1 1 1 1 1 1 1 1 1 1 1 2 2 2 2 2 2 3 3 3 3 3 3 3 3 2 2 3 3
3 3 4 3 2 2 2 2 2 1 1 2 2 1 1 1 1 1 1 1 1 1 1 1 1 1 1 1 1 1 1 1 1 1 1 1 1 1 1 1 1 1 1 1 1 1 1 1 1 1 1 1 1 1 1 1 1 1 1 1 1 1 1 1 1 1 1 1 1 2 2 2 2 2 2 2 3 3 2 2 2 2 1 1 2 2
3 4 4 3 3 3 2 2 2 2 1 1 1 1 1 1 1 2 1 1 1 1 1 1 1 1 1 1 1 1 1 1 1 1 1 1 1 1 1 1 1 1 1 1 1 1 1 1 1 1 1 1 1 1 1 1 1 1 1 1 1 1 1 1 1 1 1 1 1 1 1 2 2 2 2 2 2 1 1 1 1 1 1 1 1 1
4 4 3 2 2 3 2 2 2 1 1 1 1 1 2 2 2 2 2 1 1 1 1 1 2 1 1 1 1 1 1 1 1 1 1 1 1 1 1 1 1 1 1 1 1 1 1 1 1 1 1 1 1 1 1 1 1 1 1 1 1 1 1 1 1 1 2 2 1 1 1 1 2 2 2 1 1 1 1 1 1 1 1 1 1 1
4 4 3 2 2 2 2 2 1 1 1 1 1 2 2 2 1 1 1 1 1 1 1 1 2 2 1 1 1 1 1 1 1 1 1 1 2 1 1 1 1 1 1 1 1 1 1 1 1 1 1 1 1 1 1 1 1 1 1 1 1 1 1 1 1 1 2 2 2 2 1 1 1 1 2 2 1 1 1 1 1 1 1 1 1 1
4 3 2 2 2 2 2 2 2 2 1 1 1 2 2 2 2 1 1 1 1 2 2 2 2 2 2 2 2 2 2 1 1 2 2 2 2 2 2 2 1 1 1 1 1 1 1 1 1 1 1 1 1 1 1 1 1 1 1 1 1 1 1 1 1 1 1 1 2 2 2 1 1 1 1 1 1 1 1 1 1 1 1 1 1 1
3 3 3 3 2 2 2 2 2 2 1 1 2 2 2 2 2 2 2 2 2 2 2 2 2 2 2 2 2 2 2 2 2 2 2 2 2 2 2 2 2 2 1 1 1 1 1 2 1 1 1 1 1 1 1 1 1 1 1 1 1 1 1 1 1 1 1 1 1 2 2 2 1 1 1 1 1 1 1 1 1 1 1 1 1 1
Height
1471 1475 1477 1478 1478 1478 1478 1479 1479 1481 1483 1485 1487 1488 1489 1490 1489 1484 1481 1477 1477 1481 1479 1476 1477 1476 1474 1476 1478 1477 1476 1477 1475 1473 1476 1477 1479 1481 1481 1482 1481 1482 1485 1487 1488 1488 1489 1489 1490 1492 1494 1495 1496 1496 1497 1498 1498 1500 1500 1501 1502 1503 1503 1503 1503 1504 1506 1508 1509 1511 1512 1513 1514 1516 1517 1518 1519 1520 1523 1525 1526 1527 1528 1528 1530 1531
1471 1475 1477 1475 1475 1475 1476 1478 1478 1480 1483 1485 1486 1488 1489 1492 1489 1482 1480 1478 1476 1479 1478 1476 1478 1477 1476 1482 1484 1480 1478 1479 1478 1476 1476 1477 1478 1480 1480 1481 1481 1483 1486 1487 1487 1488 1488 1489 1490 1491 1492 1493 1493 1494 1494 1495 1496 1497 1498 1499 1501 1501 1501 1502 1502 1503 1505 1507 1508 1509 1510 1511 1513 1514 1516 1516 1517 1519 1521 1523 1525 1526 1527 1528 1529 1531
1474 1476 1474 1472 1474 1476 1478 1479 1480 1482 1484 1485 1487 1489 1490 1491 1487 1482 1479 1477 1474 1476 1477 1478 1479 1476 1480 1488 1487 1484 1483 1483 1481 1480 1480 1479 1479 1480 1480 1481 1482 1484 1486 1487 1487 1487 1487 1488 1488 1489 1490 1492 1492 1493 1493 1493 1494 1495 1496 1497 1499 1500 1500 1500 1501 1502 1504 1507 1508 1508 1510 1511 1512 1513 1514 1515 1516 1518 1520 1522 1524 1525 1525 1527 1528 1530
1477 1474 1470 1471 1474 1476 1478 1480 1482 1483 1485 1486 1486 1488 1490 1489 1488 1486 1481 1476 1474 1475 1475 1477 1478 1479 1486 1490 1487 1488 1488 1485 1483 1482 1481 1482 1482 1482 1483 1483 1484 1484 1486 1486 1486 1485 1485 1486 1487 1488 1489 1490 1491 1491 1491 1491 1491 1492 1493 1495 1496 1497 1498 1499 1499 1501 1503 1505 1506 1507 1508 1511 1512 1513 1513 1513 1515 1517 1520 1521 1522 1522 1523 1525 1527 1529
1473 1469 1467 1470 1474 1475 1476 1480 1482 1484 1486 1487 1485 1485 1487 1486 1486 1485 1481 1476 1474 1476 1475 1476 1480 1487 1493 1494 1492 1491 1490 1488 1486 1484 1482 1483 1483 1483 1484 1484 1485 1485 1485 1486 1486 1486 1486 1485 1486 1488 1489 1491 1491 1491 1490 1489 1489 1490 1492 1493 1494 1495 1496 1497 1498 1499 1500 1502 1503 1504 1506 1508 1511 1512 1512 1512 1513 1515 1517 1518 1519 1520 1522 1524 1526 1527
1469 1466 1466 1470 1473 1475 1477 1479 1481 1482 1485 1486 1483 1480 1481 1483 1483 1483 1482 1479 1479 1482 1479 1478 1489 1499 1499 1496 1495 1495 1494 1494 1490 1487 1486 1486 1485 1484 1484 1484 1485 1487 1487 1488 1489 1489 1490 1489 1490 1490 1490 1490 1490 1489 1488 1488 1489 1491 1493 1494 1494 1494 1494 1495 1496 1496 1498 1499 1500 1501 1502 1504 1506 1508 1509 1510 1511 1512 1514 1515 1516 1519 1520 1523 1525 1526
1466 1464 1465 1469 1472 1475 1477 1479 1479 1480 1485 1487 1480 1474 1477 1481 1483 1482 1480 1481 1486 1487 1483 1481 1489 1501 1501 1495 1496 1498 1501 1501 1495 1492 1491 1490 1488 1487 1486 1485 1485 1487 1489 1490 1491 1492 1492 1492 1492 1492 1492 1491 1489 1487 1487 1488 1491 1494 1496 1497 1497 1497 1496 1496 1496 1496 1497 1498 1499 1499 1500 1502 1504 1506 1507 1509 1510 1511 1512 1513 1515 1516 1518 1521 1523 1524
1462 1463 1465 1467 1470 1474 1477 1478 1476 1477 1483 1484 1474 1470 1476 1479 1481 1481 1478 1481 1486 1485 1484 1482 1483 1495 1503 1500 1500 1502 1503 1503 1499 1497 1496 1493 1492 1491 1489 1488 1487 1489 1489 1490 1491 1490 1490 1492 1492 1491 1491 1491 1490 1488 1487 1490 1495 1500 1501 1502 1503 1501 1500 1499 1499 1498 1498 1498 1499 1499 1501 1502 1503 1505 1507 1508 1509 1510 1511 1512 1513 1515 1516 1518 1520 1522
1459 1463 1464 1465 1470 1473 1472 1470 1471 1474 1478 1476 1468 1470 1475 1475 1477 1478 1477 1483 1487 1486 1488 1486 1482 1497 1510 1506 1503 1504 1504 1504 1503 1502 1501 1497 1495 1494 1492 1491 1490 1490 1490 1490 1490 1489 1491 1492 1492 1490 1490 1491 1492 1491 1492 1496 1501 1504 1505 1504 1503 1501 1500 1500 1500 1500 1499 1498 1498 1499 1500 1501 1502 1504 1506 1506 1507 1508 1509 1511 1512 1513 1514 1516 1518 1520
1458 1459 1460 1462 1467 1467 1463 1463 1467 1471 1472 1468 1467 1472 1473 1475 1478 1478 1479 1482 1488 1492 1492 1487 1485 1498 1513 1512 1508 1507 1506 1507 1506 1505 1504 1501 1498 1497 1495 1494 1493 1492 1492 1492 1492 1491 1492 1493 1492 1492 1492 1492 1495 1496 1498 1501 1504 1505 1504 1503 1501 1500 1500 1500 1500 1500 1500 1499 1498 1498 1499 1500 1501 1503 1504 1505 1506 1506 1508 1509 1510 1512 1513 1515 1517 1518
1457 1457 1458 1459 1460 1458 1457 1461 1464 1465 1466 1465 1468 1472 1473 1477 1479 1481 1485 1484 1490 1498 1492 1489 1490 1494 1507 1516 1514 1511 1509 1509 1508 1507 1505 1503 1501 1500 1499 1497 1495 1495 1494 1494 1494 1493 1493 1493 1493 1494 1494 1494 1497 1498 1499 1500 1501 1501 1501 1501 1499 1499 1498 1499 1499 1499 1498 1498 1497 1497 1498 1499 1500 1502 1502 1503 1504 1505 1506 1507 1509 1510 1511 1513 1514 1515
1458 1458 1458 1454 1453 1453 1455 1460 1463 1462 1464 1466 1468 1470 1475 1482 1483 1486 1490 1488 1497 1502 1494 1494 1495 1493 1506 1517 1514 1511 1510 1510 1509 1508 1507 1504 1504 1504 1502 1501 1499 1497 1497 1496 1495 1494 1494 1494 1494 1495 1495 1495 1497 1498 1499 1499 1499 1497 1497 1497 1497 1496 1496 1497 1498 1499 1498 1497 1497 1498 1498 1499 1500 1501 1502 1502 1503 1504 1505 1506 1508 1509 1510 1511 1512 1514
1458 1456 1456 1452 1450 1451 1454 1461 1464 1464 1466 1467 1468 1471 1480 1491 1495 1495 1498 1497 1499 1499 1497 1499 1496 1499 1514 1517 1513 1513 1512 1511 1510 1508 1508 1506 1507 1506 1505 1504 1502 1500 1499 1498 1498 1497 1496 1496 1495 1495 1495 1496 1497 1498 1498 1498 1498 1497 1497 1496 1496 1496 1496 1496 1497 1499 1500 1499 1499 1500 1500 1500 1500 1500 1501 1501 1502 1504 1505 1506 1508 1508 1509 1510 1511 1513
1461 1457 1454 1453 1450 1448 1451 1459 1463 1466 1466 1465 1466 1471 1482 1495 1503 1506 1510 1509 1503 1497 1498 1499 1498 1509 1521 1516 1513 1515 1513 1512 1510 1509 1509 1508 1508 1508 1507 1506 1505 1503 1502 1501 1501 1499 1499 1498 1497 1497 1496 1496 1497 1497 1497 1497 1497 1497 1496 1495 1495 1495 1495 1496 1496 1498 1500 1501 1502 1501 1501 1501 1500 1500 1500 1500 1501 1503 1504 1505 1507 1508 1510 1511 1511 1512
1468 1465 1454 1450 1449 1446 1448 1451 1454 1458 1462 1464 1464 1466 1476 1485 1493 1501 1504 1501 1498 1497 1498 1499 1503 1516 1522 1517 1515 1514 1512 1512 1510 1510 1510 1509 1509 1510 1509 1508 1507 1506 1505 1504 1503 1502 1501 1500 1499 1498 1497 1496 1496 1496 1496 1496 1495 1495 1495 1495 1495 1494 1494 1495 1496 1496 1497 1500 1502 1501 1499 1500 1500 1499 1499 1499 1501 1502 1503 1504 1505 1507 1509 1510 1511 1512
1468 1464 1449 1445 1446 1443 1445 1447 1447 1452 1461 1467 1465 1466 1473 1472 1476 1490 1498 1495 1492 1496 1503 1508 1514 1520 1519 1517 1516 1514 1513 1512 1511 1512 1511 1510 1510 1509 1508 1508 1508 1508 1507 1506 1505 1503 1502 1501 1499 1498 1497 1496 1496 1495 1495 1495 1494 1494 1494 1494 1494 1494 1494 1495 1496 1496 1495 1495 1497 1497 1497 1497 1498 1498 1498 1498 1500 1501 1502 1503 1504 1506 1507 1509 1511 1512
1465 1460 1447 1444 1444 1442 1444 1444 1444 1449 1457 1466 1466 1466 1469 1466 1467 1483 1497 1500 1494 1496 1512 1519 1519 1520 1520 1518 1517 1515 1515 1514 1514 1514 1513 1513 1512 1509 1509 1508 1508 1508 1508 1507 1506 1505 1503 1501 1500 1498 1497 1496 1495 1494 1494 1493 1493 1493 1493 1493 1493 1493 1493 1494 1495 1495 1495 1495 1495 1495 1495 1495 1496 1497 1497 1497 1498 1499 1501 1502 1504 1505 1507 1508 1509 1511
1459 1457 1449 1445 1444 1442 1443 1443 1444 1445 1450 1461 1465 1462 1465 1468 1471 1476 1489 1500 1498 1501 1517 1522 1519 1522 1523 1520 1518 1517 1516 1516 1516 1516 1515 1515 1514 1513 1513 1511 1510 1509 1508 1508 1506 1505 1504 1501 1500 1498 1497 1496 1495 1495 1494 1493 1493 1492 1492 1492 1492 1492 1492 1493 1493 1493 1495 1495 1495 1496 1497 1496 1496 1496 1496 1496 1497 1499 1499 1501 1503 1505 1506 1508 1509 1510
1456 1457 1452 1447 1446 1444 1443 1445 1449 1448 1447 1453 1456 1456 1462 1471 1477 1479 1487 1497 1499 1507 1521 1524 1522 1524 1524 1521 1520 1517 1517 1518 1517 1517 1517 1518 1517 1517 1516 1515 1514 1513 1511 1510 1508 1506 1505 1503 1501 1500 1499 1498 1497 1496 1495 1494 1493 1493 1493 1492 1491 1491 1491 1491 1491 1492 1493 1494 1496 1497 1498 1498 1497 1495 1495 1495 1496 1498 1498 1499 1502 1504 1507 1509 1511 1512
1453 1459 1456 1450 1447 1445 1447 1451 1454 1454 1452 1451 1454 1458 1462 1467 1473 1477 1482 1488 1492 1506 1521 1524 1524 1524 1522 1520 1519 1517 1517 1517 1518 1520 1520 1520 1520 1520 1519 1518 1517 1515 1514 1512 1510 1509 1507 1505 1504 1502 1500 1500 1498 1497 1496 1494 1494 1493 1493 1492 1491 1490 1490 1489 1490 1491 1492 1493 1495 1495 1495 1495 1494 1493 1493 1493 1494 1497 1497 1498 1501 1503 1506 1509 1512 1514
1452 1459 1460 1454 1450 1450 1455 1460 1459 1457 1455 1455 1459 1464 1465 1467 1471 1474 1480 1485 1485 1496 1513 1522 1525 1525 1520 1517 1517 1518 1519 1519 1520 1522 1522 1522 1522 1521 1521 1520 1519 1518 1517 1515 1513 1511 1509 1507 1506 1503 1502 1501 1500 1499 1497 1495 1494 1493 1493 1492 1491 1490 1489 1489 1489 1490 1490 1491 1492 1492 1492 1491 1491 1491 1491 1492 1494 1496 1495 1497 1501 1503 1505 1507 1510 1513
1452 1456 1460 1461 1461 1463 1465 1463 1460 1457 1457 1458 1462 1467 1470 1471 1472 1476 1485 1490 1488 1492 1504 1511 1519 1524 1520 1517 1519 1521 1522 1521 1522 1524 1524 1524 1523 1523 1522 1521 1520 1519 1518 1517 1515 1513 1512 1509 1507 1505 1503 1502 1500 1499 1498 1496 1495 1494 1493 1492 1492 1491 1490 1489 1489 1489 1489 1489 1489 1489 1489 1489 1488 1488 1489 1491 1494 1495 1495 1497 1500 1502 1504 1506 1509 1511
1450 1455 1463 1469 1470 1470 1468 1464 1460 1458 1458 1460 1465 1472 1475 1472 1470 1474 1481 1488 1492 1499 1503 1504 1515 1524 1523 1521 1521 1522 1524 1523 1525 1526 1525 1526 1525 1524 1523 1522 1521 1521 1519 1518 1516 1515 1514 1511 1509 1507 1504 1503 1501 1499 1498 1497 1496 1495 1493 1491 1491 1490 1490 1490 1489 1489 1488 1488 1488 1487 1487 1487 1486 1487 1488 1490 1493 1493 1494 1497 1499 1501 1503 1505 1507 1509
1450 1458 1468 1473 1472 1467 1464 1463 1460 1457 1458 1464 1471 1477 1478 1476 1474 1474 1477 1481 1489 1500 1501 1501 1515 1526 1525 1525 1524 1523 1525 1525 1526 1527 1526 1527 1526 1524 1524 1522 1522 1521 1520 1519 1518 1516 1515 1513 1511 1508 1506 1505 1503 1501 1499 1497 1496 1495 1493 1491 1489 1489 1489 1488 1488 1487 1486 1485 1485 1485 1485 1485 1485 1486 1486 1488 1490 1490 1491 1494 1496 1498 1501 1503 1505 1507
1452 1462 1468 1472 1478 1476 1471 1468 1464 1462 1466 1474 1480 1483 1481 1479 1477 1476 1480 1481 1487 1502 1501 1498 1513 1525 1525 1526 1526 1525 1526 1526 1527 1528 1527 1527 1526 1525 1524 1523 1522 1522 1520 1519 1519 1518 1516 1514 1512 1510 1508 1506 1504 1502 1500 1498 1496 1494 1492 1490 1489 1488 1488 1487 1485 1484 1483 1483 1483 1483 1483 1483 1484 1484 1484 1485 1487 1488 1488 1490 1492 1494 1497 1500 1503 1505
1457 1469 1469 1468 1477 1481 1479 1477 1474 1473 1477 1481 1485 1487 1484 1482 1478 1476 1479 1478 1485 1504 1506 1500 1512 1524 1525 1526 1527 1526 1527 1527 1527 1527 1526 1526 1527 1526 1525 1523 1522 1522 1521 1520 1520 1519 1517 1515 1513 1511 1509 1507 1505 1503 1501 1498 1496 1493 1492 1490 1489 1488 1487 1486 1484 1483 1482 1481 1481 1480 1480 1481 1482 1483 1482 1482 1483 1485 1486 1487 1489 1492 1494 1497 1500 1502
1461 1474 1474 1469 1471 1474 1476 1480 1480 1479 1482 1486 1491 1491 1489 1489 1484 1477 1477 1479 1487 1503 1510 1507 1510 1519 1525 1528 1528 1528 1528 1528 1529 1528 1527 1527 1527 1527 1526 1524 1523 1522 1522 1522 1521 1519 1518 1516 1514 1512 1509 1508 1506 1504 1502 1499 1497 1494 1492 1490 1489 1488 1487 1485 1484 1482 1481 1480 1478 1478 1478 1478 1480 1481 1481 1481 1482 1483 1484 1484 1487 1489 1492 1494 1498 1500
1462 1475 1478 1477 1479 1480 1482 1485 1484 1483 1488 1494 1497 1496 1494 1492 1487 1481 1484 1490 1493 1496 1504 1510 1511 1516 1526 1529 1529 1531 1530 1529 1530 1529 1529 1529 1528 1527 1526 1524 1523 1522 1521 1521 1520 1518 1517 1515 1513 1511 1510 1508 1507 1506 1503 1501 1498 1495 1493 1492 1490 1489 1487 1485 1484 1482 1480 1478 1476 1476 1476 1476 1477 1478 1479 1480 1481 1482 1482 1483 1485 1487 1489 1493 1495 1497
1463 1477 1480 1481 1486 1489 1489 1489 1487 1488 1493 1497 1498 1498 1498 1495 1491 1491 1497 1503 1499 1493 1498 1509 1516 1521 1528 1531 1531 1532 1531 1530 1530 1530 1531 1530 1528 1527 1526 1525 1524 1522 1521 1519 1517 1516 1515 1513 1512 1511 1510 1508 1507 1506 1504 1501 1499 1496 1494 1493 1491 1489 1487 1485 1483 1481 1479 1476 1475 1474 1473 1473 1475 1476 1477 1478 1478 1479 1480 1483 1485 1486 1488 1491 1494 1496
1464 1481 1484 1481 1488 1494 1493 1493 1492 1492 1495 1499 1500 1501 1500 1499 1498 1500 1503 1504 1504 1504 1506 1512 1520 1527 1530 1531 1531 1531 1531 1531 1532 1532 1531 1530 1529 1527 1526 1526 1526 1524 1522 1520 1518 1517 1516 1514 1513 1511 1510 1508 1507 1506 1504 1501 1499 1497 1495 1493 1491 1489 1487 1485 1482 1480 1477 1475 1473 1472 1471 1471 1472 1473 1474 1475 1475 1476 1478 1480 1483 1486 1487 1490 1493 1495
1463 1481 1485 1482 1489 1499 1499 1497 1496 1495 1498 1502 1506 1505 1504 1504 1504 1505 1507 1506 1508 1514 1518 1519 1524 1530 1532 1531 1532 1532 1532 1532 1532 1532 1532 1531 1531 1529 1528 1528 1527 1526 1525 1523 1522 1521 1518 1516 1515 1513 1511 1510 1508 1507 1504 1502 1500 1498 1496 1494 1492 1490 1487 1485 1482 1480 1477 1475 1472 1471 1469 1469 1469 1471 1472 1472 1473 1474 1475 1477 1480 1483 1485 1487 1490 1493
1463 1478 1485 1482 1490 1501 1502 1500 1500 1498 1498 1503 1510 1512 1510 1510 1510 1511 1512 1510 1510 1516 1519 1519 1524 1531 1532 1532 1533 1533 1533 1533 1533 1533 1533 1533 1533 1531 1530 1529 1529 1528 1527 1526 1525 1523 1521 1519 1517 1515 1514 1513 1511 1509 1507 1505 1503 1501 1498 1496 1493 1491 1489 1486 1483 1480 1477 1475 1472 1470 1469 1468 1468 1469 1469 1470 1471 1472 1473 1474 1476 1479 1482 1484 1487 1490
1464 1475 1482 1482 1490 1501 1501 1499 1500 1495 1493 1502 1513 1515 1515 1515 1514 1514 1515 1514 1514 1515 1516 1519 1525 1530 1532 1532 1533 1534 1535 1535 1535 1535 1535 1535 1534 1532 1531 1531 1531 1530 1529 1528 1527 1525 1524 1522 1520 1519 1517 1515 1514 1512 1510 1507 1505 1503 1500 1498 1496 1493 1491 1488 1484 1481 1478 1475 1473 1470 1469 1467 1467 1467 1468 1468 1469 1469 1470 1470 1472 1475 1478 1481 1485 1488
1467 1472 1478 1481 1490 1501 1502 1500 1499 1495 1496 1508 1515 1514 1515 1516 1515 1516 1518 1520 1519 1518 1519 1523 1527 1530 1532 1533 1534 1535 1536 1537 1537 1537 1537 1536 1535 1533 1533 1532 1532 1531 1531 1530 1529 1527 1526 1525 1523 1522 1520 1518 1516 1515 1513 1510 1508 1506 1503 1501 1498 1496 1493 1490 1487 1483 1480 1477 1474 1471 1469 1468 1467 1466 1467 1467 1467 1468 1468 1467 1469 1472 1476 1480 1483 1486
1470 1472 1477 1483 1491 1500 1503 1501 1498 1501 1508 1515 1515 1514 1516 1517 1517 1518 1521 1522 1522 1523 1525 1527 1530 1532 1533 1534 1535 1536 1537 1538 1538 1538 1538 1537 1536 1534 1534 1534 1533 1532 1531 1530 1530 1529 1528 1526 1525 1523 1522 1520 1519 1517 1515 1513 1511 1509 1506 1503 1501 1498 1495 1493 1489 1486 1482 1479 1476 1472 1470 1469 1468 1467 1466 1466 1466 1467 1466 1466 1467 1471 1475 1478 1480 1482
1469 1473 1479 1488 1493 1498 1502 1501 1500 1509 1518 1518 1517 1517 1518 1518 1517 1517 1521 1525 1525 1525 1527 1529 1532 1534 1534 1535 1536 1537 1538 1538 1538 1538 1539 1538 1537 1536 1536 1535 1534 1533 1532 1531 1531 1531 1529 1528 1526 1525 1524 1522 1520 1518 1516 1514 1512 1510 1508 1506 1503 1500 1498 1495 1492 1488 1485 1482 1479 1475 1473 1471 1470 1468 1467 1466 1466 1466 1465 1464 1466 1469 1472 1475 1477 1480
1467 1472 1479 1488 1495 1499 1504 1508 1511 1516 1519 1518 1518 1519 1518 1519 1517 1515 1521 1527 1527 1526 1528 1530 1532 1534 1534 1535 1536 1537 1537 1537 1537 1539 1540 1539 1539 1538 1537 1536 1535 1534 1533 1533 1532 1532 1530 1529 1528 1526 1525 1524 1522 1520 1518 1516 1514 1512 1510 1508 1505 1503 1500 1497 1494 1491 1488 1485 1483 1480 1476 1474 1472 1471 1469 1467 1467 1467 1465 1463 1465 1469 1472 1474 1476 1478
1466 1471 1474 1484 1496 1500 1504 1512 1516 1515 1515 1516 1517 1517 1516 1517 1516 1513 1519 1527 1528 1527 1528 1530 1532 1534 1535 1535 1536 1537 1536 1537 1539 1541 1542 1541 1541 1540 1538 1537 1537 1536 1535 1534 1533 1532 1531 1530 1529 1528 1527 1525 1523 1521 1519 1518 1516 1514 1512 1510 1507 1505 1502 1499 1496 1494 1492 1489 1487 1484 1481 1478 1476 1474 1472 1469 1468 1469 1468 1464 1464 1468 1472 1474 1477 1477
1470 1475 1476 1483 1496 1500 1501 1507 1513 1512 1513 1515 1516 1517 1516 1515 1515 1513 1516 1524 1529 1529 1528 1530 1531 1533 1534 1535 1536 1537 1537 1539 1542 1543 1543 1542 1542 1541 1540 1539 1538 1537 1536 1536 1535 1534 1533 1532 1531 1530 1528 1526 1524 1523 1521 1520 1518 1516 1514 1512 1510 1507 1504 1501 1499 1497 1496 1494 1492 1489 1486 1482 1480 1478 1476 1473 1470 1471 1472 1469 1466 1468 1472 1476 1479 1479
1476 1480 1482 1488 1497 1501 1502 1509 1513 1514 1516 1517 1516 1517 1515 1514 1515 1513 1512 1520 1528 1530 1528 1530 1532 1533 1534 1535 1536 1537 1537 1539 1542 1543 1543 1544 1543 1543 1542 1541 1540 1539 1538 1538 1537 1536 1535 1534 1532 1531 1529 1527 1526 1525 1524 1522 1520 1518 1517 1515 1512 1509 1507 1505 1504 1501 1500 1497 1495 1493 1490 1486 1484 1482 1481 1479 1475 1474 1475 1474 1471 1471 1474 1477 1480 1480
1486 1489 1491 1495 1500 1504 1508 1514 1518 1518 1518 1517 1516 1516 1515 1514 1516 1515 1515 1522 1529 1529 1529 1531 1532 1533 1535 1536 1537 1538 1538 1539 1541 1543 1544 1544 1544 1544 1543 1542 1542 1541 1541 1540 1540 1539 1537 1536 1534 1532 1531 1530 1529 1528 1526 1524 1522 1521 1520 1517 1515 1512 1510 1509 1508 1505 1503 1501 1498 1496 1494 1491 1488 1486 1485 1485 1483 1480 1480 1479 1476 1475 1476 1478 1480 1482
1491 1495 1497 1499 1504 1509 1514 1516 1517 1517 1517 1516 1516 1516 1515 1515 1517 1519 1521 1526 1528 1528 1530 1531 1532 1533 1535 1536 1537 1538 1539 1540 1542 1543 1545 1545 1545 1545 1544 1544 1543 1543 1542 1542 1541 1540 1539 1538 1536 1534 1533 1532 1531 1530 1528 1527 1525 1523 1522 1520 1517 1515 1514 1513 1511 1509 1507 1504 1501 1499 1497 1495 1493 1490 1488 1488 1488 1487 1488 1487 1482 1480 1480 1481 1482 1483
1495 1499 1503 1507 1509 1512 1514 1513 1511 1513 1515 1516 1515 1516 1516 1517 1519 1522 1524 1527 1528 1529 1531 1531 1533 1534 1535 1536 1538 1539 1541 1542 1543 1544 1545 1546 1546 1545 1545 1544 1544 1543 1543 1542 1542 1541 1541 1540 1538 1537 1536 1535 1534 1533 1531 1529 1527 1526 1524 1522 1520 1519 1517 1516 1514 1512 1509 1507 1505 1503 1501 1499 1497 1494 1492 1491 1490 1491 1493 1494 1490 1487 1487 1487 1488 1489
1500 1501 1505 1511 1512 1511 1513 1514 1512 1513 1516 1515 1515 1516 1518 1519 1521 1522 1524 1526 1529 1531 1531 1533 1535 1536 1536 1537 1539 1540 1542 1543 1544 1545 1546 1546 1546 1546 1545 1545 1544 1544 1544 1543 1543 1542 1541 1541 1540 1539 1538 1537 1536 1535 1533 1531 1530 1528 1527 1525 1523 1522 1520 1518 1517 1515 1512 1510 1508 1506 1505 1503 1501 1498 1496 1494 1493 1493 1495 1497 1496 1493 1492 1493 1494 1495
1502 1501 1502 1508 1512 1512 1514 1516 1517 1517 1517 1515 1515 1518 1519 1521 1523 1524 1524 1526 1529 1531 1532 1534 1536 1537 1538 1539 1540 1541 1542 1544 1545 1546 1546 1547 1547 1547 1546 1546 1546 1545 1545 1544 1544 1543 1542 1541 1541 1540 1539 1538 1537 1536 1534 1533 1532 1531 1529 1527 1526 1524 1522 1521 1519 1517 1515 1513 1511 1509 1508 1506 1504 1502 1500 1498 1497 1496 1497 1498 1499 1498 1498 1498 1499 1499
1503 1502 1502 1506 1512 1513 1515 1519 1519 1519 1518 1518 1519 1520 1521 1523 1525 1526 1526 1528 1530 1532 1534 1535 1536 1538 1539 1540 1541 1542 1544 1545 1546 1547 1547 1548 1548 1548 1548 1548 1547 1546 1546 1545 1544 1544 1543 1543 1542 1542 1541 1539 1538 1537 1536 1534 1534 1533 1531 1530 1528 1526 1524 1523 1521 1519 1518 1516 1514 1512 1511 1509 1508 1506 1504 1503 1501 1501 1500 1501 1501 1501 1501 1501 1502 1502
1503 1502 1503 1507 1510 1513 1518 1522 1521 1520 1521 1522 1522 1523 1525 1526 1527 1528 1529 1530 1531 1533 1535 1536 1537 1539 1540 1542 1543 1543 1545 1546 1547 1547 1548 1548 1549 1549 1549 1549 1548 1548 1547 1546 1546 1545 1544 1544 1543 1543 1542 1540 1539 1538 1537 1536 1535 1534 1533 1531 1530 1528 1526 1524 1523 1521 1520 1518 1517 1515 1514 1512 1511 1509 1508 1507 1506 1505 1504 1504 1504 1503 1503 1503 1504 1505
1503 1503 1506 1509 1511 1514 1519 1523 1522 1523 1524 1524 1524 1526 1527 1528 1529 1531 1531 1532 1534 1535 1537 1538 1539 1540 1542 1543 1544 1545 1546 1547 1548 1548 1549 1549 1550 1550 1550 1549 1549 1549 1548 1547 1547 1546 1545 1545 1544 1543 1542 1541 1540 1539 1538 1537 1536 1535 1534 1532 1531 1529 1528 1526 1524 1523 1522 1520 1519 1518 1516 1515 1514 1512 1511 1510 1509 1508 1507 1507 1506 1506 1506 1506 1506 1507
1502 1504 1507 1510 1514 1517 1520 1523 1524 1525 1527 1528 1528 1528 1529 1530 1531 1532 1533 1534 1536 1537 1538 1540 1541 1542 1543 1544 1545 1546 1547 1548 1548 1549 1550 1550 1550 1551 1551 1550 1550 1550 1549 1549 1548 1547 1547 1546 1545 1544 1543 1542 1541 1540 1539 1538 1537 1536 1535 1533 1532 1530 1529 1527 1526 1525 1524 1522 1521 1520 1519 1518 1516 1515 1515 1514 1512 1511 1510 1510 1510 1509 1509 1509 1509 1509
1503 1507 1509 1510 1515 1519 1520 1521 1522 1523 1527 1529 1530 1530 1531 1532 1532 1533 1534 1536 1537 1538 1540 1541 1542 1544 1545 1545 1547 1547 1548 1548 1549 1550 1551 1551 1551 1551 1551 1551 1551 1550 1550 1549 1549 1548 1547 1546 1546 1545 1544 1543 1542 1541 1540 1539 1538 1537 1535 1534 1533 1531 1530 1528 1528 1527 1525 1524 1523 1522 1521 1520 1519 1518 1518 1517 1515 1514 1513 1513 1512 1512 1512 1511 1511 1511
1504 1508 1508 1509 1512 1517 1518 1520 1521 1522 1525 1529 1530 1531 1533 1534 1534 1535 1536 1537 1539 1540 1541 1542 1543 1545 1546 1547 1548 1549 1549 1550 1550 1551 1552 1552 1552 1552 1552 1552 1551 1551 1550 1550 1549 1549 1548 1547 1546 1545 1544 1543 1543 1541 1541 1539 1538 1537 1536 1535 1533 1532 1531 1530 1529 1528 1527 1526 1525 1524 1523 1522 1521 1520 1520 1519 1518 1517 1517 1516 1515 1515 1514 1514 1514 1513
Wind_Speed
7 4 3 5 6 6 6 7 8 5 6 5 2 2 1 2 4 5 5 6 3 3 6 10 9 9 9 6 8 11 9 2 7 13 17 19 18 19 22 27 30 31 28 26 26 28 28 27 27 26 24 22 22 22 22 21 21 20 21 22 20 19 20 23 26 28 29 30 31 31 31 30 28 26 24 24 23 23 22 22 22 21 21 22 21 22
5 5 5 7 8 8 7 7 7 4 5 3 1 1 3 2 4 6 4 7 2 5 4 4 6 9 5 4 9 11 8 8 5 6 14 18 20 20 22 24 26 27 26 26 27 28 28 28 27 26 25 24 24 24 23 22 21 21 22 22 20 19 21 23 26 28 28 29 31 31 30 30 29 27 24 24 23 22 22 22 22 20 21 22 21 22
2 4 7 9 7 5 4 4 5 4 4 3 2 2 3 2 4 6 4 6 1 4 3 3 6 8 2 6 7 10 9 13 15 4 5 9 15 18 20 21 20 22 24 26 27 28 29 29 28 27 26 25 25 24 23 22 22 23 24 23 20 19 21 23 26 27 27 28 30 30 30 29 29 27 24 23 22 21 21 21 22 21 22 22 22 23
2 4 8 7 6 6 3 3 6 4 3 3 3 3 3 2 1 3 4 7 4 1 2 6 4 3 5 6 6 13 14 18 23 17 11 6 4 8 12 15 16 20 23 26 28 29 29 29 29 28 27 26 25 25 24 25 25 25 25 23 20 19 22 23 24 26 27 27 29 30 30 28 28 26 24 23 22 20 20 20 21 21 22 23 23 25
5 5 5 8 7 7 4 2 6 5 1 1 4 5 3 3 3 4 4 6 5 5 3 7 5 5 6 6 6 11 15 19 24 24 23 19 12 6 5 9 14 18 22 25 28 29 30 30 29 27 26 26 25 26 27 26 26 25 23 21 19 20 23 23 24 26 27 26 28 30 30 29 27 25 25 25 23 21 20 20 21 21 21 22 24 25
8 6 4 8 5 6 6 4 5 7 3 2 4 8 7 6 5 4 3 4 5 5 4 5 5 2 4 6 6 7 10 14 18 21 22 24 22 16 10 5 8 13 17 20 21 20 19 19 22 23 24 25 25 27 28 28 24 22 21 20 20 21 22 22 23 26 26 26 28 30 31 31 27 24 25 25 24 23 22 21 20 20 22 23 25 24
4 4 6 7 6 6 6 5 5 7 5 1 5 9 8 6 5 3 2 4 3 1 2 4 6 2 4 6 7 7 6 9 13 16 18 23 26 25 22 14 3 4 11 15 14 13 11 12 15 19 22 25 29 30 29 26 22 18 19 20 21 23 23 22 23 24 25 26 28 29 29 29 27 24 22 20 21 23 22 21 20 21 22 25 26 24
3 5 5 6 6 6 6 4 6 8 7 3 6 7 7 6 7 5 5 4 2 3 3 4 5 4 2 4 7 7 4 8 12 14 16 20 23 25 27 23 16 9 1 7 11 13 12 13 15 15 13 13 18 24 27 23 17 14 16 18 21 24 25 24 24 24 24 26 27 27 26 27 26 22 19 16 17 20 21 21 21 22 23 24 25 24
3 6 7 7 6 4 6 6 8 10 6 7 7 6 7 7 7 5 6 4 0 2 2 6 3 5 3 4 6 6 5 9 11 11 13 17 20 23 25 26 23 19 13 7 3 8 9 10 13 14 12 12 14 8 14 13 8 9 11 14 19 24 25 25 25 25 24 25 26 25 24 25 24 21 18 16 18 20 21 22 22 23 24 24 24 24
2 6 8 7 6 5 8 7 10 12 6 6 5 5 4 3 5 4 5 4 3 4 2 7 1 5 2 5 5 5 5 7 7 7 10 15 19 22 23 24 23 21 19 16 12 6 2 4 10 12 12 15 15 11 5 7 6 8 9 12 17 22 23 24 25 27 26 26 26 24 23 24 24 23 21 20 20 22 23 23 23 24 23 23 24 25
3 3 4 5 6 8 8 5 11 15 9 4 6 5 5 5 5 4 3 4 4 1 5 7 1 5 1 3 3 2 4 5 5 5 9 14 19 21 22 23 23 22 20 18 17 14 9 6 6 8 10 10 9 8 8 9 8 11 13 14 15 18 22 23 25 27 28 28 27 25 23 24 26 25 24 23 22 22 24 25 24 24 24 24 25 26
5 2 2 5 10 8 4 4 7 11 6 6 5 4 4 3 4 4 4 4 4 2 6 4 3 6 3 2 2 3 6 6 5 6 8 12 16 19 21 23 23 23 22 19 18 16 12 12 13 13 15 14 9 3 5 8 11 14 14 16 17 18 20 21 23 27 29 29 28 26 24 25 26 25 25 25 23 23 23 25 25 25 26 26 26 26
3 4 3 4 9 8 6 3 3 3 4 5 4 5 5 1 2 1 2 0 2 2 3 3 2 5 2 1 1 5 7 5 6 8 10 13 15 17 20 21 23 24 23 21 20 18 16 14 15 16 15 13 10 3 3 8 15 14 12 16 19 20 21 22 23 24 28 29 28 26 24 24 25 25 24 25 24 23 22 22 25 26 27 27 26 24
3 5 4 2 5 7 8 5 3 2 3 5 5 5 5 3 3 2 2 1 2 2 3 4 0 2 1 0 2 5 6 6 10 12 13 14 15 16 18 19 22 24 24 23 21 19 18 15 14 14 12 9 6 1 3 8 16 16 13 17 21 23 23 23 21 20 24 28 27 28 27 26 26 25 24 24 24 23 22 21 24 26 27 27 25 25
2 3 4 3 3 5 9 7 7 7 4 4 4 6 6 5 4 3 3 3 3 2 1 2 1 2 2 1 3 6 8 9 12 13 14 16 16 16 18 19 21 23 23 23 22 19 17 15 13 13 11 8 5 1 3 6 13 17 17 18 21 24 24 21 18 16 19 23 25 28 30 29 28 26 24 24 23 23 23 23 24 26 27 26 25 25
5 4 7 5 2 5 8 6 6 8 3 1 2 6 3 5 6 3 3 5 5 3 3 2 2 1 2 3 5 6 8 11 12 13 14 15 17 18 19 20 21 23 23 23 22 20 17 15 13 12 11 9 8 5 5 6 7 13 18 19 20 23 22 20 19 17 17 20 24 29 31 30 29 27 25 24 23 24 25 24 25 26 27 27 26 25
4 3 7 3 2 3 7 7 5 6 4 0 2 4 3 4 8 5 2 0 3 4 1 1 3 2 1 3 4 5 8 9 9 11 13 14 16 19 20 21 22 23 23 22 22 20 17 15 12 11 10 9 9 7 5 6 7 8 12 17 20 22 21 18 19 19 20 22 25 29 31 31 30 28 26 24 23 23 24 25 25 27 28 29 28 26
4 2 6 2 4 4 3 5 2 3 6 4 3 5 2 3 5 4 2 2 4 4 1 2 3 3 1 1 1 4 7 7 7 8 11 13 15 16 17 20 21 21 20 19 19 18 17 15 13 11 9 8 8 7 7 6 8 8 8 10 16 21 21 19 19 19 22 25 27 28 29 29 28 27 26 25 23 22 24 25 25 27 29 30 29 27
3 0 6 3 3 2 3 5 3 4 3 5 5 4 4 3 1 1 2 2 2 3 0 3 2 1 1 1 0 3 4 6 6 7 9 11 13 14 15 16 18 19 20 19 19 19 18 16 14 12 9 7 6 6 7 9 9 8 6 7 10 14 18 21 20 18 20 23 24 24 25 26 27 26 26 25 23 22 24 25 26 26 26 27 27 26
3 2 4 5 3 1 4 4 2 3 3 4 4 3 2 3 4 2 2 3 4 3 2 2 1 1 1 1 1 2 3 6 7 6 8 10 12 13 13 15 17 19 21 21 20 19 18 16 14 13 11 9 8 8 8 9 10 9 7 6 7 8 11 16 18 18 20 21 22 22 23 25 27 27 26 26 23 22 24 25 25 24 24 24 25 25
2 3 1 5 6 1 2 2 4 6 2 2 4 3 2 2 2 2 1 2 4 4 4 3 1 2 2 1 3 4 4 7 8 7 8 10 11 13 14 15 17 18 19 20 20 20 18 16 13 12 11 9 8 9 9 9 10 9 8 7 6 7 8 11 14 16 20 22 23 24 23 24 25 25 26 27 22 19 22 23 22 22 22 23 24 25
2 2 2 2 4 4 1 4 2 5 6 4 3 3 2 2 3 4 1 1 3 4 4 5 3 2 1 2 6 7 7 9 11 9 8 10 11 12 14 14 15 17 18 19 20 19 18 16 14 13 11 9 8 9 9 10 10 9 8 8 8 8 8 10 13 15 17 20 22 23 22 23 23 22 23 26 22 19 21 21 21 22 22 22 24 25
3 4 4 2 2 2 2 5 2 6 9 7 4 3 3 2 4 5 4 3 3 3 2 4 3 1 3 5 7 9 9 11 12 9 8 8 9 10 11 13 14 15 17 18 19 19 18 17 16 14 13 12 12 12 11 10 10 10 9 8 9 10 10 12 14 15 17 18 20 22 22 24 23 20 20 22 22 22 22 21 22 23 23 23 24 25
2 4 4 2 2 2 4 5 3 7 8 7 5 3 2 2 2 5 5 4 4 2 1 4 2 2 3 5 8 10 12 13 11 9 8 7 7 9 11 13 14 16 17 18 18 18 18 18 17 17 16 16 16 16 16 14 12 10 9 8 9 10 11 13 14 15 16 17 17 17 19 22 22 20 19 19 20 21 22 20 21 23 23 24 25 25
1 1 4 3 1 3 4 4 4 6 5 4 3 4 3 3 3 3 2 3 3 2 3 5 2 2 3 5 7 9 11 12 10 9 9 8 9 11 11 13 14 16 17 18 18 18 19 19 18 19 19 19 19 20 20 19 16 13 10 8 8 8 10 12 15 17 17 18 18 17 16 16 17 18 19 19 19 20 21 22 23 24 24 25 26 25
3 2 3 5 5 3 2 2 1 1 3 3 3 6 6 4 3 3 3 4 2 1 3 4 4 4 5 6 7 7 8 9 9 10 10 11 11 11 12 14 15 16 17 18 18 18 19 19 19 20 20 20 21 21 21 22 20 18 15 12 10 8 8 10 14 17 18 18 19 19 18 16 15 16 19 21 20 18 21 23 25 25 26 27 27 25
5 3 3 5 5 5 5 3 3 2 4 3 4 8 7 4 3 3 4 2 3 4 3 1 6 9 7 6 6 6 6 7 7 9 10 10 11 11 12 15 16 18 18 18 18 19 19 20 20 20 21 21 22 21 21 22 22 20 18 17 16 14 11 11 12 15 16 18 19 19 19 17 14 14 17 21 21 19 20 24 25 26 27 28 28 26
5 4 4 7 8 4 4 5 5 6 8 5 4 7 7 6 6 6 5 2 3 5 2 2 8 9 6 6 6 5 5 5 7 8 8 7 9 11 14 16 17 19 19 19 20 21 22 22 22 22 22 22 22 21 21 21 22 22 22 21 20 19 18 17 16 16 16 17 17 18 19 18 15 13 15 18 21 21 22 23 24 26 28 29 29 27
6 3 3 7 11 9 7 8 10 11 10 9 8 8 8 9 10 9 5 3 3 4 4 8 10 7 6 6 6 5 5 7 8 8 7 7 9 12 15 16 18 19 21 22 23 23 23 23 23 23 23 23 23 22 23 23 23 24 25 24 24 23 23 23 22 21 20 19 18 17 18 19 17 15 14 15 18 21 23 22 24 26 29 30 30 28
5 3 2 7 12 10 8 7 9 12 11 10 11 10 9 10 12 11 9 8 9 8 7 12 13 8 5 5 5 7 8 8 8 8 8 9 11 12 15 16 17 18 20 22 23 23 23 23 23 23 23 23 23 24 24 25 26 26 26 26 27 27 28 28 28 26 25 23 21 19 18 18 16 14 14 15 17 20 22 22 24 26 29 32 31 29
4 4 2 4 8 7 6 7 9 12 13 12 11 9 8 9 9 9 8 8 11 10 9 12 12 7 4 6 8 8 8 8 8 10 10 10 11 12 14 15 16 17 18 19 20 21 21 22 22 22 22 22 23 24 25 25 26 26 27 27 28 29 30 30 31 30 28 27 25 23 22 21 18 13 14 16 16 20 23 23 25 27 30 34 33 30
4 4 2 2 5 3 2 6 9 11 13 12 10 9 8 7 5 5 5 5 6 8 10 9 6 3 4 7 9 9 9 10 10 10 10 10 10 12 14 15 15 16 17 17 18 19 20 20 20 20 20 21 21 22 23 24 24 24 25 27 28 28 29 30 31 31 30 29 28 27 27 26 21 15 14 15 15 20 25 26 26 28 33 37 36 33
4 6 3 3 5 3 3 2 2 4 7 6 5 5 4 4 4 5 6 8 6 4 5 5 3 4 6 7 7 8 9 10 11 10 9 9 11 13 14 14 14 15 15 17 18 19 19 19 18 18 18 18 18 19 20 20 21 21 23 24 25 26 27 28 29 29 30 29 28 27 27 27 24 18 15 16 15 19 26 29 29 32 37 38 37 34
5 6 4 2 4 4 4 2 3 2 2 1 2 2 1 3 6 8 7 8 8 6 5 6 6 7 7 7 8 9 10 11 12 12 11 11 13 14 14 14 14 14 15 16 17 18 18 18 17 17 16 16 16 16 16 18 19 19 19 20 22 23 25 26 26 27 28 28 26 25 24 25 23 19 15 16 17 20 27 32 33 36 39 38 38 36
5 5 3 2 3 4 2 2 3 1 0 1 3 4 6 7 9 12 10 9 9 9 9 10 8 8 9 11 12 14 14 15 15 15 14 14 15 16 16 16 16 16 18 18 18 18 18 18 18 18 17 16 15 15 15 16 17 17 18 18 20 22 23 23 23 25 27 28 27 25 23 23 20 14 12 15 20 25 31 35 35 38 40 38 40 40
6 4 3 3 2 3 2 2 2 3 2 4 4 4 6 5 5 8 8 8 7 6 8 9 9 11 13 14 15 16 17 17 17 16 14 13 14 15 15 16 16 17 18 19 19 19 18 19 19 19 18 17 16 16 16 16 16 16 17 17 18 20 20 20 21 23 25 27 29 28 25 24 19 11 8 13 19 26 33 39 38 40 43 42 41 42
7 5 4 3 2 2 3 3 3 4 3 4 3 2 2 1 1 3 4 4 5 5 6 10 9 11 14 15 16 17 15 14 14 13 11 11 12 13 13 14 14 15 15 16 16 16 17 17 17 17 17 17 17 18 18 17 17 16 16 17 17 17 18 19 20 23 24 25 27 27 28 28 22 11 3 8 15 19 26 36 41 40 39 39 39 40
7 5 5 4 1 1 4 4 3 2 2 2 2 1 1 2 2 4 4 3 3 6 6 12 10 10 13 14 16 15 9 6 6 7 8 9 9 11 11 12 12 13 13 14 14 15 16 16 16 16 15 16 17 18 18 17 17 17 17 18 19 19 19 21 22 23 23 24 24 24 25 29 26 16 4 6 11 13 17 28 38 38 34 35 37 39
10 5 5 6 3 2 4 3 2 2 1 1 2 1 4 2 4 4 3 2 1 5 6 12 11 12 15 16 16 11 3 2 2 3 6 8 8 10 10 11 11 12 12 13 14 15 16 16 17 17 18 18 19 17 17 17 17 18 19 20 21 22 23 25 25 23 22 22 21 21 21 25 27 22 11 5 11 10 12 21 33 35 34 35 36 37
8 5 4 5 4 3 3 2 2 1 1 0 1 2 4 1 4 2 1 1 1 5 7 11 11 12 14 15 13 6 1 2 6 7 9 9 8 8 9 9 10 10 11 12 13 14 15 16 18 20 22 23 22 19 17 16 17 18 20 20 21 23 24 24 23 22 21 19 19 20 20 20 23 24 19 11 11 13 13 20 29 34 35 36 35 34
4 4 3 4 4 4 4 2 1 1 1 1 1 4 3 2 2 1 0 3 4 6 6 8 8 8 10 12 10 4 5 10 14 13 11 9 8 8 8 7 7 8 9 10 10 11 13 14 17 20 21 22 22 22 21 19 18 18 18 19 21 23 22 21 20 19 19 19 18 18 19 18 18 20 21 18 14 14 15 19 26 31 33 34 33 33
2 3 2 2 2 3 3 2 1 1 1 0 1 3 3 2 1 1 4 7 8 9 7 7 8 9 10 12 13 14 16 18 17 15 11 8 7 7 6 5 5 6 7 7 8 10 11 13 15 17 18 19 20 21 22 22 21 19 18 18 19 20 20 19 18 17 17 18 18 17 17 18 16 16 15 15 15 16 16 16 20 24 26 27 29 29
2 2 2 2 2 2 3 3 2 2 1 1 1 1 3 1 4 9 12 12 11 11 12 12 13 14 17 19 20 20 19 18 15 13 10 7 6 5 5 5 6 7 8 8 9 10 11 13 14 15 16 17 17 18 19 21 22 21 20 20 19 18 18 19 19 18 17 17 18 17 17 16 16 15 14 12 10 12 16 17 18 19 19 19 20 22
1 1 2 2 1 1 2 2 1 1 2 1 4 3 4 8 15 18 18 16 14 15 16 16 17 18 21 22 20 19 18 16 14 11 8 7 6 6 6 7 7 8 8 9 10 10 10 12 13 13 15 15 16 16 17 18 20 21 20 20 19 19 19 20 20 20 21 20 19 18 16 16 16 15 15 13 11 9 10 14 18 21 20 18 17 18
1 4 5 3 2 3 3 3 3 7 9 10 13 15 16 18 20 20 21 21 18 17 18 19 20 19 20 20 19 18 16 15 12 10 8 7 7 7 7 7 7 8 8 9 9 10 10 11 11 12 14 14 14 15 17 18 19 21 20 19 18 18 19 19 19 20 22 23 23 21 17 14 15 16 16 15 14 14 13 13 15 19 21 21 20 20
4 5 5 5 6 7 9 9 9 13 17 19 20 21 21 21 21 21 22 22 20 18 19 20 20 19 18 17 17 16 15 13 11 10 8 8 7 7 8 8 8 8 9 9 10 10 10 10 11 12 13 14 14 14 16 17 18 19 20 18 17 17 16 16 17 18 19 20 22 24 21 17 14 15 16 16 15 15 15 15 15 17 18 18 18 18
2 3 4 4 4 4 5 7 9 12 16 19 21 21 21 22 21 21 21 20 20 19 19 19 18 17 15 14 14 15 13 11 11 10 9 8 9 8 8 8 8 8 10 10 11 11 10 10 11 12 13 14 14 13 14 16 17 17 17 17 16 16 15 14 15 17 18 19 19 20 22 21 18 14 13 14 15 16 17 17 16 15 15 15 15 15
2 6 6 4 3 4 5 8 12 14 16 18 20 21 21 21 20 19 19 19 19 19 18 17 16 15 14 13 12 13 12 10 10 10 9 9 9 9 8 8 8 9 9 10 10 10 10 10 11 12 12 13 12 12 12 14 15 16 15 15 15 15 14 13 14 15 16 17 18 18 18 20 21 19 15 12 11 12 13 15 16 16 16 15 14 14
6 6 4 5 7 7 8 10 13 14 12 12 17 20 20 20 20 19 18 18 18 18 17 16 14 13 12 11 10 10 11 10 9 9 10 10 10 10 9 9 8 8 8 9 9 10 10 10 11 11 12 11 11 11 11 13 14 15 14 14 14 16 16 14 13 14 14 15 16 16 16 16 18 20 19 16 14 12 11 11 11 12 12 12 12 11
7 5 5 8 7 3 5 10 12 9 7 10 16 19 18 18 20 19 18 18 18 18 18 17 16 14 13 13 12 13 14 14 13 12 12 12 11 10 8 8 7 7 6 6 7 8 8 9 10 10 11 11 11 11 11 12 14 15 14 13 13 15 17 15 13 13 15 15 16 16 15 14 14 15 16 16 17 16 15 14 13 12 12 11 10 10
8 7 5 5 5 6 12 17 14 12 14 16 20 21 19 19 21 21 20 20 19 19 20 19 19 18 17 16 16 16 16 16 15 14 13 11 9 8 7 6 5 4 5 5 6 7 8 9 10 10 10 10 10 11 11 12 13 14 15 14 14 14 15 15 13 13 14 15 15 16 15 14 14 13 12 12 13 14 14 13 13 13 13 13 12 11
Wind_Direction
178 171 178 188 192 195 195 179 179 170 141 149 132 124 226 260 284 276 263 278 233 184 243 231 222 241 254 289 331 359 7 266 180 165 184 198 204 204 204 206 208 210 210 209 211 211 211 214 213 212 211 209 207 208 206 204 208 211 211 211 207 204 211 219 226 226 223 222 222 224 227 228 227 225 227 227 225 223 224 228 228 225 221 213 207 204
159 183 217 209 202 193 187 182 178 145 115 123 143 263 295 246 262 269 260 287 231 163 252 224 205 245 260 22 9 14 22 357 352 183 191 197 203 208 212 213 213 213 211 211 213 212 211 215 215 214 215 211 209 208 206 205 208 211 213 212 206 206 212 220 228 230 227 226 226 227 228 229 226 224 227 229 227 225 224 227 229 229 227 216 207 205
146 216 234 217 194 156 144 152 148 129 117 106 124 191 279 250 276 289 274 291 280 148 259 162 173 243 315 59 31 25 34 18 11 349 233 223 215 217 219 219 217 215 214 213 214 211 211 215 217 218 218 215 213 211 208 206 208 212 213 209 205 209 216 221 228 232 230 228 229 231 231 230 229 228 229 231 230 229 227 226 225 226 227 219 208 204
160 246 231 195 145 137 161 137 117 106 104 108 140 184 248 233 286 290 278 304 331 59 182 142 146 286 3 45 36 26 32 32 30 36 37 15 286 261 246 234 225 218 217 216 214 212 212 215 218 222 222 219 216 214 211 207 207 211 210 205 203 211 218 222 227 230 230 229 229 232 233 232 232 232 232 229 228 230 229 226 224 221 221 217 207 201
212 243 190 141 136 160 184 172 134 136 212 238 198 200 210 194 209 237 271 318 338 359 66 105 67 358 7 24 21 12 23 32 29 35 39 33 26 359 289 258 242 229 223 220 218 215 215 216 219 223 224 223 221 218 215 212 209 209 208 205 205 214 219 221 226 228 227 228 229 230 231 229 228 227 225 224 222 223 224 223 222 218 215 212 206 202
236 243 145 124 143 166 170 199 174 158 188 279 234 218 211 204 219 240 301 4 30 2 11 87 80 354 331 14 26 2 14 25 23 30 30 26 30 31 19 333 256 239 230 226 226 224 223 222 222 227 229 228 227 224 220 217 213 211 212 211 212 217 220 220 223 226 225 226 229 230 229 228 226 221 218 220 218 217 221 223 219 215 212 209 205 203
234 205 156 144 154 165 175 216 212 161 147 250 238 218 206 189 190 180 82 54 72 294 337 77 116 166 314 359 11 356 6 19 26 34 28 27 32 35 35 35 37 235 233 229 231 233 230 227 226 232 234 230 229 228 224 218 213 215 221 223 225 227 229 226 224 224 223 224 228 232 233 233 232 223 218 219 218 218 224 226 220 215 213 209 206 205
183 161 162 161 153 161 180 215 212 159 131 224 240 200 176 168 176 160 106 96 178 220 329 10 103 112 332 333 346 345 12 28 31 35 29 29 32 36 43 49 58 65 134 212 223 227 220 219 225 231 236 246 245 231 217 206 205 219 231 237 240 240 241 240 234 229 224 223 228 233 236 237 234 224 216 215 217 222 226 225 223 218 214 212 211 211
164 163 179 175 159 168 196 204 185 153 144 238 233 171 167 170 162 141 107 109 75 97 317 315 53 89 298 297 340 350 24 31 29 32 29 28 29 35 43 50 59 66 72 89 198 225 217 230 247 247 250 288 316 276 207 198 215 248 254 251 249 247 247 248 244 237 230 225 228 233 235 234 229 221 215 214 219 225 225 224 223 219 215 214 214 216
208 192 187 162 157 197 214 196 161 159 188 233 191 120 96 86 95 97 105 116 49 67 222 270 38 103 266 311 348 353 23 21 16 28 28 26 31 35 39 45 52 58 62 65 62 75 149 275 283 278 271 284 319 339 271 242 253 267 264 251 250 251 251 252 251 246 239 230 227 230 230 226 223 221 219 217 220 224 224 223 221 217 215 215 217 220
282 237 190 162 189 212 212 179 159 178 191 152 129 95 53 41 49 49 62 96 83 38 250 258 57 100 148 315 335 356 28 12 5 29 28 28 34 37 38 39 42 44 47 51 54 60 59 28 350 340 348 338 341 342 297 269 252 251 250 247 253 254 254 255 254 251 243 233 229 228 222 219 220 221 222 221 221 221 221 220 218 216 216 217 218 220
324 311 231 218 220 213 175 150 170 188 175 108 116 112 85 12 21 30 359 52 101 238 260 248 83 85 112 256 311 51 49 25 23 36 33 36 39 41 42 41 40 41 41 40 42 44 42 38 32 27 28 34 47 36 305 281 252 241 237 241 249 250 254 257 253 251 247 238 234 230 219 216 219 222 226 229 228 225 223 222 218 216 218 219 218 219
313 242 270 267 231 200 144 134 156 139 100 101 105 98 102 15 23 34 295 84 149 228 237 208 91 66 78 279 5 59 55 36 46 55 50 49 47 45 46 45 43 43 41 37 35 34 32 31 30 33 35 37 48 60 283 257 237 231 229 239 247 250 255 252 246 251 253 247 241 236 225 218 220 224 229 234 236 233 231 227 222 220 220 219 218 216
307 289 305 321 247 197 154 146 153 146 136 141 136 121 129 125 113 210 259 145 204 226 210 223 147 83 135 147 79 82 69 56 60 60 55 53 51 50 50 47 44 44 44 43 39 35 33 29 28 32 30 21 34 114 239 243 230 226 229 234 240 247 252 249 246 251 256 254 251 243 235 227 224 226 228 232 236 238 237 231 226 226 222 220 218 213
169 292 261 197 233 187 165 168 164 156 147 163 155 126 137 151 141 192 209 162 190 200 279 285 63 115 192 108 77 91 79 62 57 53 50 48 46 50 49 45 42 39 40 44 46 47 44 40 38 39 36 20 10 327 288 275 238 230 234 235 236 244 253 256 254 251 249 251 248 240 237 234 229 229 231 232 235 240 242 238 231 228 225 221 219 214
149 233 252 239 232 169 170 184 148 125 112 230 139 103 133 181 144 133 179 171 170 138 14 355 72 88 168 84 47 75 82 65 55 49 47 42 35 37 38 35 34 32 34 39 43 47 49 51 51 49 51 43 24 4 346 338 289 253 247 245 244 247 253 257 257 255 244 236 233 233 234 234 231 231 232 232 234 238 244 245 238 232 227 223 222 218
129 246 278 281 259 199 172 178 158 142 159 221 118 140 198 170 123 115 176 153 100 114 20 351 119 101 117 93 38 71 91 74 60 52 48 43 35 33 28 23 22 24 28 33 37 39 40 43 47 47 48 45 32 17 0 352 337 309 279 264 257 253 254 254 254 255 248 237 233 235 236 235 232 231 233 234 233 234 240 245 243 236 232 227 224 220
144 259 290 246 228 256 157 140 86 96 131 122 171 187 164 80 90 108 131 19 50 117 268 339 119 133 150 187 50 82 92 82 67 57 51 45 39 34 24 20 20 20 23 27 32 33 31 30 31 32 28 22 18 3 346 339 330 330 327 295 270 260 257 253 249 251 252 249 247 248 245 243 239 232 232 237 237 236 237 242 244 240 238 236 230 220
128 343 295 282 228 268 56 78 42 2 72 124 164 159 113 115 140 100 121 126 107 131 108 5 46 137 162 212 147 78 95 100 82 65 59 46 38 33 21 16 18 20 22 24 28 29 26 25 22 20 14 4 5 351 337 339 336 334 341 322 296 276 259 248 248 256 260 258 260 264 262 258 252 242 237 238 238 239 239 239 242 242 241 243 240 228
113 112 283 303 302 284 34 47 161 267 346 67 79 33 50 137 156 162 144 146 150 151 133 69 10 269 226 238 148 123 124 117 102 81 68 53 41 33 20 11 12 17 19 20 23 26 26 26 24 24 18 4 4 2 345 340 344 348 342 319 309 298 266 252 254 261 264 263 264 268 266 263 259 252 248 244 237 237 240 238 238 238 235 236 240 236
93 104 236 307 330 41 70 342 199 197 207 89 69 36 16 58 112 142 102 99 131 145 143 129 176 246 255 247 109 93 77 86 85 76 65 53 41 29 19 13 10 12 16 17 21 24 24 23 23 27 26 12 3 6 1 357 359 358 347 331 320 308 285 271 269 268 266 263 262 263 261 259 258 258 256 251 243 241 243 242 239 237 234 231 231 231
154 127 148 315 359 65 61 300 246 162 150 132 115 129 143 126 119 120 146 307 83 120 153 145 166 219 1 72 89 75 56 62 70 73 67 53 39 25 17 15 10 8 12 17 22 25 24 23 21 22 23 13 1 1 4 7 10 4 346 335 325 313 303 293 291 291 285 277 273 269 263 258 259 263 260 254 251 249 246 244 239 236 235 231 226 223
145 105 90 41 37 105 253 295 10 93 99 94 83 99 116 119 116 121 179 214 70 80 127 101 122 152 37 57 87 85 72 67 69 75 73 58 42 27 17 15 13 11 13 18 23 27 28 27 26 27 27 21 14 10 7 5 7 4 349 331 317 307 302 296 296 300 297 292 288 283 276 270 268 265 259 255 253 249 244 241 236 231 228 225 223 220
96 87 85 55 351 333 281 288 7 53 70 71 45 37 59 54 111 135 169 169 114 122 111 77 105 147 71 60 79 86 80 73 66 62 62 53 37 28 19 14 13 11 12 17 24 29 32 33 33 34 34 31 25 19 14 11 8 5 353 335 319 304 295 290 288 287 285 284 286 284 278 274 274 271 262 257 254 248 244 238 230 225 221 220 219 216
109 76 93 108 57 355 325 320 6 25 39 60 25 347 355 28 79 116 123 85 95 159 134 116 131 138 110 81 70 77 79 74 63 51 47 40 30 23 17 14 13 12 12 16 23 29 33 35 37 38 39 38 33 25 18 15 14 11 5 349 330 310 297 291 285 280 278 279 281 282 275 266 267 270 265 259 253 247 243 236 225 219 217 217 215 212
104 84 105 127 144 160 188 221 206 56 34 39 11 355 1 23 62 121 120 79 99 158 86 106 142 130 115 91 69 64 68 69 58 44 35 28 25 20 17 17 17 18 18 17 21 26 30 35 37 38 39 37 33 25 17 13 13 13 13 7 355 332 308 293 285 283 286 286 284 283 280 271 263 261 261 261 257 250 243 233 223 218 216 215 213 209
97 61 58 104 132 170 184 197 204 132 81 45 356 358 3 359 17 90 105 98 154 142 43 44 147 132 121 101 77 63 61 66 59 47 34 20 18 20 22 24 24 24 23 20 21 25 29 33 34 34 35 34 31 24 16 13 13 14 14 10 4 351 333 314 302 299 300 298 294 286 279 277 274 267 262 261 261 257 244 228 219 218 214 211 210 206
100 53 20 62 72 76 97 85 68 80 85 80 50 18 13 22 43 71 79 62 138 127 73 152 136 121 113 102 87 78 75 73 65 56 44 22 19 26 28 27 25 23 22 21 23 24 27 31 29 28 30 30 28 23 17 15 16 16 15 12 7 359 348 338 329 323 318 313 310 301 289 284 283 278 271 265 262 260 249 228 217 216 212 208 206 202
107 62 10 76 71 53 56 72 78 85 85 73 64 47 29 41 58 71 69 39 84 121 149 140 120 101 103 105 92 83 78 72 67 61 54 37 28 30 32 29 24 20 20 22 23 24 26 27 25 24 24 24 23 20 17 17 16 15 14 12 9 5 358 351 342 335 327 321 318 315 307 297 288 281 279 274 262 257 253 234 216 212 208 203 201 200
101 68 63 95 84 57 42 61 81 88 85 63 53 50 49 58 66 72 74 72 72 73 95 109 103 91 94 99 86 78 74 72 71 61 52 43 34 34 36 32 25 21 21 23 24 26 26 25 24 23 21 19 18 17 18 18 16 12 9 8 6 3 0 357 351 344 335 327 322 322 321 315 304 286 274 274 265 256 251 234 218 214 207 200 197 197
79 124 171 97 83 60 44 67 81 84 82 67 46 36 39 50 55 57 63 74 79 79 85 94 96 91 87 90 88 84 81 78 69 57 49 42 38 39 40 35 31 28 25 23 25 27 28 28 26 24 21 20 19 18 18 18 14 9 5 3 3 1 358 356 353 348 341 333 326 324 323 324 324 305 276 271 264 252 243 229 218 214 204 195 193 190
72 127 176 70 84 98 94 97 97 92 84 68 46 35 33 39 48 45 40 51 84 113 113 100 94 105 115 107 97 85 77 71 60 54 50 43 41 44 42 37 36 35 32 29 28 30 32 31 29 27 25 24 22 18 17 16 11 6 2 360 359 358 355 353 352 349 344 338 330 324 321 322 327 320 286 271 259 246 239 231 221 212 200 191 187 185
103 130 143 102 99 137 179 152 101 91 85 63 36 40 47 62 79 64 40 34 43 103 125 111 112 129 129 122 107 84 69 62 55 53 51 45 47 49 45 40 38 37 36 34 33 34 34 32 32 32 30 28 25 20 16 12 8 4 2 359 356 355 354 353 353 351 348 344 335 327 322 321 325 322 295 274 262 246 235 229 220 207 196 189 183 184
104 121 129 113 107 147 204 291 352 41 98 67 344 356 67 102 91 79 61 46 48 63 85 93 106 116 116 115 107 93 83 77 71 67 61 56 56 55 50 45 42 39 40 40 39 38 36 34 33 34 33 31 29 24 18 14 9 4 1 358 354 353 352 352 355 356 356 353 346 337 330 326 324 316 289 264 254 244 234 226 213 201 195 190 185 187
107 103 96 76 95 136 173 14 51 120 178 57 54 71 96 104 96 88 74 57 63 79 92 99 106 112 111 111 111 106 102 94 84 75 67 62 62 61 57 53 49 46 46 45 42 39 36 35 34 32 31 31 29 26 22 19 12 5 2 359 356 354 353 352 357 3 5 4 0 353 344 337 328 309 272 242 229 225 225 221 208 197 194 190 188 189
122 111 97 63 65 116 96 36 107 141 118 104 100 103 115 112 97 87 66 43 47 74 107 114 115 120 119 116 116 114 108 97 84 72 66 65 67 68 65 61 57 53 49 47 43 40 38 36 34 32 30 28 27 26 26 22 16 10 7 4 1 357 355 355 1 8 11 12 11 9 3 353 338 313 266 237 216 203 207 209 202 193 192 192 192 191
118 120 108 63 35 111 102 73 102 120 137 146 150 163 152 209 230 124 88 55 29 39 113 130 126 128 129 127 129 127 114 94 75 61 61 69 73 74 72 68 63 57 54 51 47 45 43 39 38 36 33 31 30 29 28 24 20 17 14 12 11 6 2 4 9 13 14 15 16 18 18 10 353 333 274 223 209 188 186 194 195 191 191 194 192 188
90 119 139 116 50 88 105 102 116 144 190 183 163 160 6 336 195 134 104 114 20 23 117 143 138 135 139 142 148 148 129 84 65 56 66 76 78 78 75 70 67 63 60 57 52 48 45 41 41 40 37 37 36 32 30 27 24 24 23 23 23 18 14 15 17 17 16 17 18 21 27 26 12 355 350 171 187 182 171 179 186 188 189 190 185 179
60 67 101 100 88 112 115 119 151 185 226 145 153 219 350 357 170 136 82 133 41 25 108 144 147 151 156 161 168 172 158 56 91 96 96 95 87 83 79 74 72 67 62 58 53 51 49 46 45 44 41 40 37 33 31 30 29 29 29 28 27 25 24 23 22 21 19 17 19 21 30 36 29 14 10 101 143 153 153 162 171 176 178 179 176 172
44 31 56 90 107 111 101 102 125 155 268 217 175 300 338 20 168 145 31 185 130 57 99 133 146 161 168 173 182 196 292 135 144 132 124 117 101 92 88 82 77 71 64 61 56 54 53 52 50 49 47 45 41 37 33 31 31 33 33 30 28 26 25 24 23 24 22 20 20 22 28 39 41 33 27 46 99 120 130 145 157 165 170 171 170 169
38 28 57 105 107 86 86 101 104 86 251 240 318 326 347 103 155 175 194 166 125 94 101 121 139 164 178 181 179 148 110 138 143 135 132 130 116 107 100 88 82 77 70 65 61 58 57 58 57 54 51 49 45 42 40 35 34 34 33 31 31 28 24 18 16 19 23 23 23 24 30 39 49 50 42 39 56 85 106 128 143 153 161 163 163 165
56 35 34 81 99 92 93 96 97 114 218 248 12 10 40 97 202 177 127 131 123 109 102 106 123 146 156 150 137 123 122 133 138 137 140 141 130 120 111 94 82 76 73 71 65 59 58 61 62 59 54 50 46 44 43 41 39 37 33 31 31 29 23 17 13 12 16 23 26 27 31 38 48 59 57 46 44 55 70 98 124 136 144 148 150 154
97 91 71 87 110 93 76 81 124 154 247 268 133 32 7 50 155 130 115 116 118 110 102 101 110 126 132 128 124 126 130 135 140 145 147 142 128 120 110 91 75 72 75 73 66 62 61 62 62 59 53 48 44 42 42 43 42 40 38 38 36 35 32 30 26 22 18 21 26 29 33 39 47 58 64 57 44 42 50 67 90 105 116 126 134 139
356 102 151 176 187 110 106 139 167 47 347 235 160 126 93 124 139 134 123 117 116 115 112 111 113 122 127 126 127 133 137 140 145 146 137 122 108 101 93 83 75 77 77 71 66 63 63 62 58 53 50 46 41 38 39 41 41 39 40 43 43 43 42 39 37 37 34 30 28 29 34 42 50 58 66 69 71 70 65 65 73 80 87 95 105 115
73 108 109 99 83 88 98 108 96 74 75 99 118 118 119 127 135 134 126 122 123 125 125 124 124 127 129 129 131 136 140 142 141 135 125 116 106 96 86 75 72 72 68 60 56 52 51 51 46 40 39 42 42 40 40 40 38 37 40 45 45 41 38 34 35 38 39 38 37 35 35 44 56 63 69 75 82 91 97 96 90 86 86 90 95 99
106 103 97 97 105 91 76 82 94 89 88 98 110 117 124 128 129 127 125 126 131 134 133 132 132 133 134 134 134 134 136 137 136 131 123 112 101 94 87 76 69 68 63 55 50 46 42 40 34 27 27 32 36 40 39 37 35 34 36 40 40 37 31 27 28 31 33 34 37 37 37 43 55 65 70 74 81 87 93 100 107 106 104 105 105 102
39 66 88 115 132 114 84 96 105 101 101 107 113 118 123 125 126 126 126 128 133 134 134 134 133 133 133 131 128 128 129 131 131 128 119 105 97 94 90 82 76 73 69 60 53 49 44 40 35 27 22 23 27 33 35 34 34 33 32 31 32 32 29 25 24 27 30 30 30 32 37 40 47 57 67 73 79 84 85 87 92 97 98 98 96 95
98 100 97 88 83 88 101 111 107 103 110 117 121 125 129 130 131 129 125 127 131 133 132 131 128 129 131 128 124 124 124 123 124 121 114 105 103 100 95 93 88 81 74 65 57 52 48 45 41 33 23 17 17 21 25 26 26 27 28 28 27 24 23 25 24 23 26 29 29 29 33 37 40 46 53 61 70 77 81 83 86 87 87 84 81 81
121 111 107 106 103 93 97 111 111 102 103 120 131 135 136 136 136 132 127 128 129 130 131 128 122 121 122 122 123 123 122 121 118 115 112 111 110 104 96 93 88 78 69 59 51 46 44 40 36 32 27 17 8 8 13 18 19 19 19 20 19 17 16 17 20 21 23 26 29 31 33 34 35 38 43 49 55 60 64 68 71 76 84 90 90 88
106 116 124 120 119 117 132 141 137 121 119 140 142 140 141 140 137 133 132 132 129 129 131 127 122 118 113 110 113 114 116 118 116 115 115 112 107 102 95 89 82 70 59 48 39 35 32 28 24 21 22 20 13 7 9 16 20 19 13 7 5 9 13 15 16 20 24 27 28 30 33 34 34 33 35 39 45 53 60 63 63 61 65 73 77 78
125 148 154 124 117 137 150 154 149 135 138 149 148 143 140 136 130 127 129 130 128 128 127 122 120 119 115 112 113 112 112 114 115 115 115 109 103 99 92 84 77 61 45 34 27 20 16 16 16 14 14 17 18 15 12 15 20 19 13 7 2 3 9 16 19 20 21 24 29 31 31 31 32 34 33 32 34 40 49 60 69 71 69 67 64 62